Location: Central Falls
(41.8900°N, 71.3929°W)
Time: 20:56:28
(UTC+00:00)

Courier 1B Rocket - Pass Details

Date: 10 December 2023
Orbit: 920 x 1202 km, 28.2° (Epoch: 04 March)

Event Time Altitude Azimuth Distance (km) Brightness Sun altitude
Rises 18:15:32 0° 254° (WSW) 3,752 8.6 21.4°
Reaches altitude 10° 18:19:05 10° 238° (WSW) 2,747 8.5 21.1°
Maximum altitude 18:23:33 19° 195° (SSW) 2,098 9.1 20.8°
Drops below altitude 10° 18:27:52 10° 151° (SSE) 2,641 7.9 20.4°
Sets 18:31:12 0° 134° (SE) 3,559 8.2 20.1°
